owner,sensor,date,latitude,longitude,dew_point_temperature,qcFlag 
ADCP,ioos:station:wmo:42365:1,2012-03-01T00:30:00Z,28.2000,-89.1200,20.7,11111222 
ADCP,ioos:station:wmo:42365:1,2012-03-01T01:30:00Z,28.2000,-89.1200,20.7,11111222 
ADCP,ioos:station:wmo:42365:1,2012-03-01T02:30:00Z,28.2000,-89.1200,20.8,11111222 
ADCP,ioos:station:wmo:42365:1,2012-03-01T03:30:00Z,28.2000,-89.1200,20.9,11111222 
ADCP,ioos:station:wmo:42365:1,2012-03-01T05:30:00Z,28.2000,-89.1200,21.0,11111222 
ADCP,ioos:station:wmo:42365:1,2012-03-01T06:30:00Z,28.2000,-89.1200,21.0,11111222 
ADCP,ioos:station:wmo:42365:1,2012-03-01T07:30:00Z,28.2000,-89.1200,21.0,11111222 
ADCP,ioos:station:wmo:42365:1,2012-03-01T08:30:00Z,28.2000,-89.1200,21.0,11111222 
ADCP,ioos:station:wmo:42365:1,2012-03-01T09:30:00Z,28.2000,-89.1200,20.6,11111222 
ADCP,ioos:station:wmo:42365:1,2012-03-01T10:30:00Z,28.2000,-89.1200,20.6,11111222 
ADCP,ioos:station:wmo:42365:1,2012-03-01T11:30:00Z,28.2000,-89.1200,20.5,11111222 
ADCP,ioos:station:wmo:42365:1,2012-03-01T12:30:00Z,28.2000,-89.1200,20.4,11111222 
ADCP,ioos:station:wmo:42365:1,2012-03-01T13:30:00Z,28.2000,-89.1200,19.9,11111222 
ADCP,ioos:station:wmo:42365:1,2012-03-01T14:30:00Z,28.2000,-89.1200,20.1,11111222 
ADCP,ioos:station:wmo:42365:1,2012-03-01T15:30:00Z,28.2000,-89.1200,19.9,11111222 
ADCP,ioos:station:wmo:42365:1,2012-03-01T16:30:00Z,28.2000,-89.1200,19.8,11111222 
ADCP,ioos:station:wmo:42365:1,2012-03-01T17:30:00Z,28.2000,-89.1200,19.6,11111222 
ADCP,ioos:station:wmo:42365:1,2012-03-01T18:30:00Z,28.2000,-89.1200,20.3,11111222 
ADCP,ioos:station:wmo:42365:1,2012-03-01T19:30:00Z,28.2000,-89.1200,20.5,11111222 
ADCP,ioos:station:wmo:42365:1,2012-03-01T20:30:00Z,28.2000,-89.1200,20.7,11111222 
ADCP,ioos:station:wmo:42365:1,2012-03-01T21:30:00Z,28.2000,-89.1200,20.8,11111222 
ADCP,ioos:station:wmo:42365:1,2012-03-01T22:30:00Z,28.2000,-89.1200,21.0,11111222 
ADCP,ioos:station:wmo:42365:1,2012-03-01T23:30:00Z,28.2000,-89.1200,20.9,11111222 
ADCP,ioos:station:wmo:42365:1,2012-03-02T00:30:00Z,28.2000,-89.1200,21.0,11111222 
ADCP,ioos:station:wmo:42365:1,2012-03-02T01:30:00Z,28.2000,-89.1200,20.9,11111222 
ADCP,ioos:station:wmo:42365:1,2012-03-02T02:30:00Z,28.2000,-89.1200,21.1,11111222 
ADCP,ioos:station:wmo:42365:1,2012-03-02T03:30:00Z,28.2000,-89.1200,21.0,11111222 
ADCP,ioos:station:wmo:42365:1,2012-03-02T05:30:00Z,28.2000,-89.1200,20.8,11111222 
ADCP,ioos:station:wmo:42365:1,2012-03-02T06:30:00Z,28.2000,-89.1200,20.7,11111222 
ADCP,ioos:station:wmo:42365:1,2012-03-02T07:30:00Z,28.2000,-89.1200,20.7,11111222 
ADCP,ioos:station:wmo:42365:1,2012-03-02T08:30:00Z,28.2000,-89.1200,20.5,11111222 
ADCP,ioos:station:wmo:42365:1,2012-03-02T09:30:00Z,28.2000,-89.1200,20.6,11111222 
ADCP,ioos:station:wmo:42365:1,2012-03-02T10:30:00Z,28.2000,-89.1200,20.8,11111222 
ADCP,ioos:station:wmo:42365:1,2012-03-02T11:30:00Z,28.2000,-89.1200,20.9,11111222 
ADCP,ioos:station:wmo:42365:1,2012-03-02T12:30:00Z,28.2000,-89.1200,20.8,11111222 
ADCP,ioos:station:wmo:42365:1,2012-03-02T13:30:00Z,28.2000,-89.1200,20.8,11111222 
ADCP,ioos:station:wmo:42365:1,2012-03-02T15:30:00Z,28.2000,-89.1200,20.8,11111222 
ADCP,ioos:station:wmo:42365:1,2012-03-02T16:30:00Z,28.2000,-89.1200,20.8,11111222 
ADCP,ioos:station:wmo:42365:1,2012-03-02T17:30:00Z,28.2000,-89.1200,21.0,11111222 
ADCP,ioos:station:wmo:42365:1,2012-03-02T18:30:00Z,28.2000,-89.1200,21.0,11111222 
ADCP,ioos:station:wmo:42365:1,2012-03-02T19:30:00Z,28.2000,-89.1200,20.9,11111222 
ADCP,ioos:station:wmo:42365:1,2012-03-02T20:30:00Z,28.2000,-89.1200,21.0,11111222 
ADCP,ioos:station:wmo:42365:1,2012-03-02T21:30:00Z,28.2000,-89.1200,21.1,11111222 
ADCP,ioos:station:wmo:42365:1,2012-03-02T22:30:00Z,28.2000,-89.1200,21.0,11111222 
ADCP,ioos:station:wmo:42365:1,2012-03-02T23:30:00Z,28.2000,-89.1200,21.1,11111222 
ADCP,ioos:station:wmo:42365:1,2012-03-03T01:30:00Z,28.2000,-89.1200,21.0,11111222 
ADCP,ioos:station:wmo:42365:1,2012-03-03T02:30:00Z,28.2000,-89.1200,21.1,11111222 
ADCP,ioos:station:wmo:42365:1,2012-03-03T03:30:00Z,28.2000,-89.1200,21.0,11111222 
ADCP,ioos:station:wmo:42365:1,2012-03-03T04:30:00Z,28.2000,-89.1200,21.0,11111222 
ADCP,ioos:station:wmo:42365:1,2012-03-03T05:30:00Z,28.2000,-89.1200,21.1,11111222 
ADCP,ioos:station:wmo:42365:1,2012-03-03T06:30:00Z,28.2000,-89.1200,21.2,11111222 
ADCP,ioos:station:wmo:42365:1,2012-03-03T07:30:00Z,28.2000,-89.1200,20.9,11111222 
ADCP,ioos:station:wmo:42365:1,2012-03-03T08:30:00Z,28.2000,-89.1200,20.9,11111222 
ADCP,ioos:station:wmo:42365:1,2012-03-03T09:30:00Z,28.2000,-89.1200,20.9,11111222 
ADCP,ioos:station:wmo:42365:1,2012-03-03T10:30:00Z,28.2000,-89.1200,20.8,11111222 
ADCP,ioos:station:wmo:42365:1,2012-03-03T11:30:00Z,28.2000,-89.1200,20.9,11111222 
ADCP,ioos:station:wmo:42365:1,2012-03-03T12:30:00Z,28.2000,-89.1200,21.0,11111222 
ADCP,ioos:station:wmo:42365:1,2012-03-03T13:30:00Z,28.2000,-89.1200,21.0,11111222 
ADCP,ioos:station:wmo:42365:1,2012-03-03T14:30:00Z,28.2000,-89.1200,21.1,11111222 
ADCP,ioos:station:wmo:42365:1,2012-03-03T15:30:00Z,28.2000,-89.1200,21.1,11111222 
ADCP,ioos:station:wmo:42365:1,2012-03-03T16:30:00Z,28.2000,-89.1200,21.0,11111222 
ADCP,ioos:station:wmo:42365:1,2012-03-03T17:30:00Z,28.2000,-89.1200,21.2,11111222 
ADCP,ioos:station:wmo:42365:1,2012-03-03T18:30:00Z,28.2000,-89.1200,21.2,11111222 
ADCP,ioos:station:wmo:42365:1,2012-03-03T19:30:00Z,28.2000,-89.1200,21.1,11111222 
ADCP,ioos:station:wmo:42365:1,2012-03-03T21:30:00Z,28.2000,-89.1200,21.0,11111222 
ADCP,ioos:station:wmo:42365:1,2012-03-03T22:30:00Z,28.2000,-89.1200,19.3,11111222 
ADCP,ioos:station:wmo:42365:1,2012-03-03T23:30:00Z,28.2000,-89.1200,16.5,11111222 
ADCP,ioos:station:wmo:42365:1,2012-03-04T00:30:00Z,28.2000,-89.1200,14.7,11111222 
ADCP,ioos:station:wmo:42365:1,2012-03-04T01:30:00Z,28.2000,-89.1200,13.1,11111222 
ADCP,ioos:station:wmo:42365:1,2012-03-04T02:30:00Z,28.2000,-89.1200,12.3,11111222 
ADCP,ioos:station:wmo:42365:1,2012-03-04T03:30:00Z,28.2000,-89.1200,10.3,11111222 
ADCP,ioos:station:wmo:42365:1,2012-03-04T04:30:00Z,28.2000,-89.1200,7.4,11111222 
ADCP,ioos:station:wmo:42365:1,2012-03-04T06:30:00Z,28.2000,-89.1200,3.8,11111222 
ADCP,ioos:station:wmo:42365:1,2012-03-04T07:30:00Z,28.2000,-89.1200,4.6,11111222 
ADCP,ioos:station:wmo:42365:1,2012-03-04T10:30:00Z,28.2000,-89.1200,0.0,11111222 
ADCP,ioos:station:wmo:42365:1,2012-03-04T11:30:00Z,28.2000,-89.1200,-0.7,11144222 
ADCP,ioos:station:wmo:42365:1,2012-03-04T12:30:00Z,28.2000,-89.1200,0.1,11111222 
ADCP,ioos:station:wmo:42365:1,2012-03-04T13:30:00Z,28.2000,-89.1200,1.8,11111222 
ADCP,ioos:station:wmo:42365:1,2012-03-04T15:30:00Z,28.2000,-89.1200,1.6,11111222 
ADCP,ioos:station:wmo:42365:1,2012-03-04T17:30:00Z,28.2000,-89.1200,-1.6,11144222 
ADCP,ioos:station:wmo:42365:1,2012-03-04T18:30:00Z,28.2000,-89.1200,-2.4,11144222 
ADCP,ioos:station:wmo:42365:1,2012-03-04T19:30:00Z,28.2000,-89.1200,-2.7,11144222 
ADCP,ioos:station:wmo:42365:1,2012-03-04T20:30:00Z,28.2000,-89.1200,-2.7,11144222 
ADCP,ioos:station:wmo:42365:1,2012-03-04T21:30:00Z,28.2000,-89.1200,-3.5,11144222 
ADCP,ioos:station:wmo:42365:1,2012-03-04T22:30:00Z,28.2000,-89.1200,-3.9,11144222 
ADCP,ioos:station:wmo:42365:1,2012-03-04T23:30:00Z,28.2000,-89.1200,-2.0,11144222 
ADCP,ioos:station:wmo:42365:1,2012-03-05T00:30:00Z,28.2000,-89.1200,-1.4,11144222 
ADCP,ioos:station:wmo:42365:1,2012-03-05T01:30:00Z,28.2000,-89.1200,0.5,11111222 
ADCP,ioos:station:wmo:42365:1,2012-03-05T02:30:00Z,28.2000,-89.1200,-0.1,11144222 
ADCP,ioos:station:wmo:42365:1,2012-03-05T03:30:00Z,28.2000,-89.1200,2.7,11111222 
ADCP,ioos:station:wmo:42365:1,2012-03-05T05:30:00Z,28.2000,-89.1200,1.6,11111222 
ADCP,ioos:station:wmo:42365:1,2012-03-05T07:30:00Z,28.2000,-89.1200,3.6,11111222 
ADCP,ioos:station:wmo:42365:1,2012-03-05T09:30:00Z,28.2000,-89.1200,5.4,11111222 
ADCP,ioos:station:wmo:42365:1,2012-03-05T10:30:00Z,28.2000,-89.1200,5.6,11111222 
ADCP,ioos:station:wmo:42365:1,2012-03-05T11:30:00Z,28.2000,-89.1200,6.8,11111222 
ADCP,ioos:station:wmo:42365:1,2012-03-05T12:30:00Z,28.2000,-89.1200,6.8,11111222 
ADCP,ioos:station:wmo:42365:1,2012-03-05T13:30:00Z,28.2000,-89.1200,8.0,11111222 
ADCP,ioos:station:wmo:42365:1,2012-03-05T14:30:00Z,28.2000,-89.1200,9.0,11111222 
ADCP,ioos:station:wmo:42365:1,2012-03-05T15:30:00Z,28.2000,-89.1200,7.8,11111222 
ADCP,ioos:station:wmo:42365:1,2012-03-05T16:30:00Z,28.2000,-89.1200,7.3,11111222 
ADCP,ioos:station:wmo:42365:1,2012-03-05T17:30:00Z,28.2000,-89.1200,8.1,11111222 
ADCP,ioos:station:wmo:42365:1,2012-03-05T18:30:00Z,28.2000,-89.1200,6.1,11111222 
ADCP,ioos:station:wmo:42365:1,2012-03-05T19:30:00Z,28.2000,-89.1200,5.4,11111222 
ADCP,ioos:station:wmo:42365:1,2012-03-05T20:30:00Z,28.2000,-89.1200,6.2,11111222 
ADCP,ioos:station:wmo:42365:1,2012-03-05T21:30:00Z,28.2000,-89.1200,6.2,11111222 
ADCP,ioos:station:wmo:42365:1,2012-03-05T22:30:00Z,28.2000,-89.1200,6.1,11111222 
ADCP,ioos:station:wmo:42365:1,2012-03-05T23:30:00Z,28.2000,-89.1200,6.9,11111222 
ADCP,ioos:station:wmo:42365:1,2012-03-06T00:30:00Z,28.2000,-89.1200,6.4,11111222 
ADCP,ioos:station:wmo:42365:1,2012-03-06T01:30:00Z,28.2000,-89.1200,6.6,11111222 
ADCP,ioos:station:wmo:42365:1,2012-03-06T02:30:00Z,28.2000,-89.1200,6.6,11111222 
ADCP,ioos:station:wmo:42365:1,2012-03-06T03:30:00Z,28.2000,-89.1200,7.3,11111222 
ADCP,ioos:station:wmo:42365:1,2012-03-06T04:30:00Z,28.2000,-89.1200,7.1,11111222 
ADCP,ioos:station:wmo:42365:1,2012-03-06T05:30:00Z,28.2000,-89.1200,6.9,11111222 
ADCP,ioos:station:wmo:42365:1,2012-03-06T06:30:00Z,28.2000,-89.1200,7.9,11111222 
ADCP,ioos:station:wmo:42365:1,2012-03-06T08:30:00Z,28.2000,-89.1200,8.4,11111222 
ADCP,ioos:station:wmo:42365:1,2012-03-06T10:30:00Z,28.2000,-89.1200,10.4,11111222 
ADCP,ioos:station:wmo:42365:1,2012-03-06T11:30:00Z,28.2000,-89.1200,12.3,11111222 
ADCP,ioos:station:wmo:42365:1,2012-03-06T12:30:00Z,28.2000,-89.1200,12.6,11111222 
ADCP,ioos:station:wmo:42365:1,2012-03-06T13:30:00Z,28.2000,-89.1200,10.0,11111222 
ADCP,ioos:station:wmo:42365:1,2012-03-06T14:30:00Z,28.2000,-89.1200,7.8,11111222 
ADCP,ioos:station:wmo:42365:1,2012-03-06T15:30:00Z,28.2000,-89.1200,9.3,11111222 
ADCP,ioos:station:wmo:42365:1,2012-03-06T16:30:00Z,28.2000,-89.1200,9.6,11111222 
ADCP,ioos:station:wmo:42365:1,2012-03-06T17:30:00Z,28.2000,-89.1200,9.2,11111222 
ADCP,ioos:station:wmo:42365:1,2012-03-06T18:30:00Z,28.2000,-89.1200,9.0,11111222 
ADCP,ioos:station:wmo:42365:1,2012-03-06T19:30:00Z,28.2000,-89.1200,11.7,11111222 
ADCP,ioos:station:wmo:42365:1,2012-03-06T21:30:00Z,28.2000,-89.1200,12.5,11111222 
ADCP,ioos:station:wmo:42365:1,2012-03-06T22:30:00Z,28.2000,-89.1200,12.5,11111222 
ADCP,ioos:station:wmo:42365:1,2012-03-06T23:30:00Z,28.2000,-89.1200,12.7,11111222 
ADCP,ioos:station:wmo:42365:1,2012-03-07T00:30:00Z,28.2000,-89.1200,13.0,11111222 
ADCP,ioos:station:wmo:42365:1,2012-03-07T01:30:00Z,28.2000,-89.1200,12.3,11111222 
ADCP,ioos:station:wmo:42365:1,2012-03-07T02:30:00Z,28.2000,-89.1200,12.3,11111222 
ADCP,ioos:station:wmo:42365:1,2012-03-07T03:30:00Z,28.2000,-89.1200,11.0,11111222 
ADCP,ioos:station:wmo:42365:1,2012-03-07T04:30:00Z,28.2000,-89.1200,11.3,11111222 
ADCP,ioos:station:wmo:42365:1,2012-03-07T05:30:00Z,28.2000,-89.1200,11.8,11111222 
ADCP,ioos:station:wmo:42365:1,2012-03-07T06:30:00Z,28.2000,-89.1200,12.5,11111222 
ADCP,ioos:station:wmo:42365:1,2012-03-07T07:30:00Z,28.2000,-89.1200,13.0,11111222 
ADCP,ioos:station:wmo:42365:1,2012-03-07T08:30:00Z,28.2000,-89.1200,14.2,11111222 
ADCP,ioos:station:wmo:42365:1,2012-03-07T09:30:00Z,28.2000,-89.1200,15.2,11111222 
ADCP,ioos:station:wmo:42365:1,2012-03-07T10:30:00Z,28.2000,-89.1200,16.9,11111222 
ADCP,ioos:station:wmo:42365:1,2012-03-07T11:30:00Z,28.2000,-89.1200,16.9,11111222 
ADCP,ioos:station:wmo:42365:1,2012-03-07T12:30:00Z,28.2000,-89.1200,17.0,11111222 
ADCP,ioos:station:wmo:42365:1,2012-03-07T13:30:00Z,28.2000,-89.1200,17.4,11111222 
ADCP,ioos:station:wmo:42365:1,2012-03-07T16:30:00Z,28.2000,-89.1200,17.7,11111222 
ADCP,ioos:station:wmo:42365:1,2012-03-07T17:30:00Z,28.2000,-89.1200,17.6,11111222 
ADCP,ioos:station:wmo:42365:1,2012-03-07T18:30:00Z,28.2000,-89.1200,18.2,11111222 
ADCP,ioos:station:wmo:42365:1,2012-03-07T19:30:00Z,28.2000,-89.1200,18.5,11111222 
ADCP,ioos:station:wmo:42365:1,2012-03-07T20:30:00Z,28.2000,-89.1200,18.7,11111222 
ADCP,ioos:station:wmo:42365:1,2012-03-07T21:30:00Z,28.2000,-89.1200,18.9,11111222 
ADCP,ioos:station:wmo:42365:1,2012-03-07T22:30:00Z,28.2000,-89.1200,19.3,11111222 
ADCP,ioos:station:wmo:42365:1,2012-03-08T00:30:00Z,28.2000,-89.1200,19.5,11111222 
ADCP,ioos:station:wmo:42365:1,2012-03-08T01:30:00Z,28.2000,-89.1200,19.2,11111222 
ADCP,ioos:station:wmo:42365:1,2012-03-08T02:30:00Z,28.2000,-89.1200,19.0,11111222 
ADCP,ioos:station:wmo:42365:1,2012-03-08T03:30:00Z,28.2000,-89.1200,19.1,11111222 
ADCP,ioos:station:wmo:42365:1,2012-03-08T04:30:00Z,28.2000,-89.1200,19.2,11111222 
ADCP,ioos:station:wmo:42365:1,2012-03-08T05:30:00Z,28.2000,-89.1200,19.6,11111222 
ADCP,ioos:station:wmo:42365:1,2012-03-08T06:30:00Z,28.2000,-89.1200,19.8,11111222 
ADCP,ioos:station:wmo:42365:1,2012-03-08T07:30:00Z,28.2000,-89.1200,19.9,11111222 
ADCP,ioos:station:wmo:42365:1,2012-03-08T08:30:00Z,28.2000,-89.1200,19.9,11111222 
ADCP,ioos:station:wmo:42365:1,2012-03-08T09:30:00Z,28.2000,-89.1200,20.0,11111222 
ADCP,ioos:station:wmo:42365:1,2012-03-08T11:30:00Z,28.2000,-89.1200,19.7,11111222 
ADCP,ioos:station:wmo:42365:1,2012-03-08T12:30:00Z,28.2000,-89.1200,19.9,11111222 
ADCP,ioos:station:wmo:42365:1,2012-03-08T13:30:00Z,28.2000,-89.1200,20.0,11111222 
ADCP,ioos:station:wmo:42365:1,2012-03-08T14:30:00Z,28.2000,-89.1200,19.6,11111222 
ADCP,ioos:station:wmo:42365:1,2012-03-08T15:30:00Z,28.2000,-89.1200,19.7,11111222 
ADCP,ioos:station:wmo:42365:1,2012-03-08T16:30:00Z,28.2000,-89.1200,19.7,11111222 
ADCP,ioos:station:wmo:42365:1,2012-03-08T17:30:00Z,28.2000,-89.1200,19.9,11111222 
ADCP,ioos:station:wmo:42365:1,2012-03-08T18:30:00Z,28.2000,-89.1200,19.8,11111222 
ADCP,ioos:station:wmo:42365:1,2012-03-08T19:30:00Z,28.2000,-89.1200,19.8,11111222 
ADCP,ioos:station:wmo:42365:1,2012-03-08T21:30:00Z,28.2000,-89.1200,20.0,11111222 
ADCP,ioos:station:wmo:42365:1,2012-03-08T23:30:00Z,28.2000,-89.1200,20.3,11111222 
ADCP,ioos:station:wmo:42365:1,2012-03-09T00:30:00Z,28.2000,-89.1200,20.4,11111222 
ADCP,ioos:station:wmo:42365:1,2012-03-09T01:30:00Z,28.2000,-89.1200,20.4,11111222 
ADCP,ioos:station:wmo:42365:1,2012-03-09T04:30:00Z,28.2000,-89.1200,20.5,11111222 
ADCP,ioos:station:wmo:42365:1,2012-03-09T06:30:00Z,28.2000,-89.1200,20.4,11111222 
ADCP,ioos:station:wmo:42365:1,2012-03-09T07:30:00Z,28.2000,-89.1200,20.3,11111222 
ADCP,ioos:station:wmo:42365:1,2012-03-09T09:30:00Z,28.2000,-89.1200,20.4,11111222 
ADCP,ioos:station:wmo:42365:1,2012-03-09T10:30:00Z,28.2000,-89.1200,20.4,11111222 
ADCP,ioos:station:wmo:42365:1,2012-03-09T11:30:00Z,28.2000,-89.1200,20.4,11111222 
ADCP,ioos:station:wmo:42365:1,2012-03-09T12:30:00Z,28.2000,-89.1200,20.5,11111222 
ADCP,ioos:station:wmo:42365:1,2012-03-09T13:30:00Z,28.2000,-89.1200,20.5,11111222 
ADCP,ioos:station:wmo:42365:1,2012-03-09T14:30:00Z,28.2000,-89.1200,20.3,11111222 
ADCP,ioos:station:wmo:42365:1,2012-03-09T15:30:00Z,28.2000,-89.1200,20.3,11111222 
ADCP,ioos:station:wmo:42365:1,2012-03-09T16:30:00Z,28.2000,-89.1200,20.3,11111222 
ADCP,ioos:station:wmo:42365:1,2012-03-09T18:30:00Z,28.2000,-89.1200,20.7,11111222 
ADCP,ioos:station:wmo:42365:1,2012-03-09T19:30:00Z,28.2000,-89.1200,18.3,11111222 
ADCP,ioos:station:wmo:42365:1,2012-03-09T20:30:00Z,28.2000,-89.1200,18.1,11111222 
ADCP,ioos:station:wmo:42365:1,2012-03-09T21:30:00Z,28.2000,-89.1200,18.2,11111222 
ADCP,ioos:station:wmo:42365:1,2012-03-09T22:30:00Z,28.2000,-89.1200,18.5,11111222 
ADCP,ioos:station:wmo:42365:1,2012-03-10T00:30:00Z,28.2000,-89.1200,19.0,11111222 
ADCP,ioos:station:wmo:42365:1,2012-03-10T01:30:00Z,28.2000,-89.1200,19.5,11111222 
ADCP,ioos:station:wmo:42365:1,2012-03-10T02:30:00Z,28.2000,-89.1200,17.6,11111222 
ADCP,ioos:station:wmo:42365:1,2012-03-10T03:30:00Z,28.2000,-89.1200,17.6,11111222 
ADCP,ioos:station:wmo:42365:1,2012-03-10T04:30:00Z,28.2000,-89.1200,16.7,11111222 
ADCP,ioos:station:wmo:42365:1,2012-03-10T06:30:00Z,28.2000,-89.1200,17.7,11111222 
ADCP,ioos:station:wmo:42365:1,2012-03-10T07:30:00Z,28.2000,-89.1200,17.2,11111222 
ADCP,ioos:station:wmo:42365:1,2012-03-10T08:30:00Z,28.2000,-89.1200,17.0,11111222 
ADCP,ioos:station:wmo:42365:1,2012-03-10T09:30:00Z,28.2000,-89.1200,16.9,11111222 
ADCP,ioos:station:wmo:42365:1,2012-03-10T10:30:00Z,28.2000,-89.1200,16.7,11111222 
ADCP,ioos:station:wmo:42365:1,2012-03-10T11:30:00Z,28.2000,-89.1200,16.5,11111222 
ADCP,ioos:station:wmo:42365:1,2012-03-10T12:30:00Z,28.2000,-89.1200,16.9,11111222 
ADCP,ioos:station:wmo:42365:1,2012-03-10T13:30:00Z,28.2000,-89.1200,17.0,11111222 
ADCP,ioos:station:wmo:42365:1,2012-03-10T14:30:00Z,28.2000,-89.1200,16.8,11111222 
ADCP,ioos:station:wmo:42365:1,2012-03-10T15:30:00Z,28.2000,-89.1200,17.6,11111222 
ADCP,ioos:station:wmo:42365:1,2012-03-10T17:30:00Z,28.2000,-89.1200,17.5,11111222 
ADCP,ioos:station:wmo:42365:1,2012-03-10T18:30:00Z,28.2000,-89.1200,17.4,11111222 
ADCP,ioos:station:wmo:42365:1,2012-03-10T20:30:00Z,28.2000,-89.1200,17.5,11111222 
ADCP,ioos:station:wmo:42365:1,2012-03-10T22:30:00Z,28.2000,-89.1200,17.2,11111222 
ADCP,ioos:station:wmo:42365:1,2012-03-10T23:30:00Z,28.2000,-89.1200,17.1,11111222 
ADCP,ioos:station:wmo:42365:1,2012-03-11T00:30:00Z,28.2000,-89.1200,17.3,11111222 
ADCP,ioos:station:wmo:42365:1,2012-03-11T01:30:00Z,28.2000,-89.1200,17.1,11111222 
ADCP,ioos:station:wmo:42365:1,2012-03-11T02:30:00Z,28.2000,-89.1200,17.3,11111222 
ADCP,ioos:station:wmo:42365:1,2012-03-11T03:30:00Z,28.2000,-89.1200,17.5,11111222 
ADCP,ioos:station:wmo:42365:1,2012-03-11T04:30:00Z,28.2000,-89.1200,17.2,11111222 
ADCP,ioos:station:wmo:42365:1,2012-03-11T05:30:00Z,28.2000,-89.1200,17.4,11111222 
ADCP,ioos:station:wmo:42365:1,2012-03-11T06:30:00Z,28.2000,-89.1200,17.1,11111222 
ADCP,ioos:station:wmo:42365:1,2012-03-11T07:30:00Z,28.2000,-89.1200,17.3,11111222 
ADCP,ioos:station:wmo:42365:1,2012-03-11T08:30:00Z,28.2000,-89.1200,17.3,11111222 
ADCP,ioos:station:wmo:42365:1,2012-03-11T09:30:00Z,28.2000,-89.1200,17.0,11111222 
ADCP,ioos:station:wmo:42365:1,2012-03-11T11:30:00Z,28.2000,-89.1200,17.8,11111222 
ADCP,ioos:station:wmo:42365:1,2012-03-11T12:30:00Z,28.2000,-89.1200,18.1,11111222 
ADCP,ioos:station:wmo:42365:1,2012-03-11T14:30:00Z,28.2000,-89.1200,18.4,11111222 
ADCP,ioos:station:wmo:42365:1,2012-03-11T17:30:00Z,28.2000,-89.1200,18.8,11111222 
ADCP,ioos:station:wmo:42365:1,2012-03-11T18:30:00Z,28.2000,-89.1200,19.1,11111222 
ADCP,ioos:station:wmo:42365:1,2012-03-11T19:30:00Z,28.2000,-89.1200,19.1,11111222 
ADCP,ioos:station:wmo:42365:1,2012-03-11T20:30:00Z,28.2000,-89.1200,18.6,11111222 
ADCP,ioos:station:wmo:42365:1,2012-03-11T21:30:00Z,28.2000,-89.1200,19.5,11111222 
ADCP,ioos:station:wmo:42365:1,2012-03-11T22:30:00Z,28.2000,-89.1200,19.7,11111222 
ADCP,ioos:station:wmo:42365:1,2012-03-11T23:30:00Z,28.2000,-89.1200,20.1,11111222 
ADCP,ioos:station:wmo:42365:1,2012-03-12T00:30:00Z,28.2000,-89.1200,20.1,11111222 
ADCP,ioos:station:wmo:42365:1,2012-03-12T01:30:00Z,28.2000,-89.1200,20.2,11111222 
ADCP,ioos:station:wmo:42365:1,2012-03-12T02:30:00Z,28.2000,-89.1200,20.2,11111222 
ADCP,ioos:station:wmo:42365:1,2012-03-12T06:30:00Z,28.2000,-89.1200,20.9,11111222 
ADCP,ioos:station:wmo:42365:1,2012-03-12T07:30:00Z,28.2000,-89.1200,20.9,11111222 
ADCP,ioos:station:wmo:42365:1,2012-03-12T09:30:00Z,28.2000,-89.1200,20.9,11111222 
ADCP,ioos:station:wmo:42365:1,2012-03-12T10:30:00Z,28.2000,-89.1200,20.9,11111222 
ADCP,ioos:station:wmo:42365:1,2012-03-12T11:30:00Z,28.2000,-89.1200,20.8,11111222 
ADCP,ioos:station:wmo:42365:1,2012-03-12T12:30:00Z,28.2000,-89.1200,20.6,11111222 
ADCP,ioos:station:wmo:42365:1,2012-03-12T13:30:00Z,28.2000,-89.1200,20.4,11111222 
ADCP,ioos:station:wmo:42365:1,2012-03-12T14:30:00Z,28.2000,-89.1200,20.7,11111222 
ADCP,ioos:station:wmo:42365:1,2012-03-12T15:30:00Z,28.2000,-89.1200,20.8,11111222 
ADCP,ioos:station:wmo:42365:1,2012-03-12T16:30:00Z,28.2000,-89.1200,20.6,11111222 
ADCP,ioos:station:wmo:42365:1,2012-03-12T17:30:00Z,28.2000,-89.1200,20.9,11111222 
ADCP,ioos:station:wmo:42365:1,2012-03-12T18:30:00Z,28.2000,-89.1200,20.3,11111222 
ADCP,ioos:station:wmo:42365:1,2012-03-12T19:30:00Z,28.2000,-89.1200,20.4,11111222 
ADCP,ioos:station:wmo:42365:1,2012-03-12T20:30:00Z,28.2000,-89.1200,20.7,11111222 
ADCP,ioos:station:wmo:42365:1,2012-03-12T21:30:00Z,28.2000,-89.1200,20.7,11111222 
ADCP,ioos:station:wmo:42365:1,2012-03-12T22:30:00Z,28.2000,-89.1200,20.7,11111222 
ADCP,ioos:station:wmo:42365:1,2012-03-12T23:30:00Z,28.2000,-89.1200,21.0,11111222 
ADCP,ioos:station:wmo:42365:1,2012-03-13T01:30:00Z,28.2000,-89.1200,21.3,11111222 
ADCP,ioos:station:wmo:42365:1,2012-03-13T02:30:00Z,28.2000,-89.1200,21.2,11111222 
ADCP,ioos:station:wmo:42365:1,2012-03-13T03:30:00Z,28.2000,-89.1200,21.2,11111222 
ADCP,ioos:station:wmo:42365:1,2012-03-13T04:30:00Z,28.2000,-89.1200,21.3,11111222 
ADCP,ioos:station:wmo:42365:1,2012-03-13T05:30:00Z,28.2000,-89.1200,21.2,11111222 
ADCP,ioos:station:wmo:42365:1,2012-03-13T06:30:00Z,28.2000,-89.1200,21.0,11111222 
ADCP,ioos:station:wmo:42365:1,2012-03-13T08:30:00Z,28.2000,-89.1200,20.7,11111222 
ADCP,ioos:station:wmo:42365:1,2012-03-13T09:30:00Z,28.2000,-89.1200,20.6,11111222 
ADCP,ioos:station:wmo:42365:1,2012-03-13T10:30:00Z,28.2000,-89.1200,20.6,11111222 
ADCP,ioos:station:wmo:42365:1,2012-03-13T11:30:00Z,28.2000,-89.1200,20.3,11111222 
ADCP,ioos:station:wmo:42365:1,2012-03-13T12:30:00Z,28.2000,-89.1200,19.7,11111222 
ADCP,ioos:station:wmo:42365:1,2012-03-13T13:30:00Z,28.2000,-89.1200,20.0,11111222 
ADCP,ioos:station:wmo:42365:1,2012-03-13T14:30:00Z,28.2000,-89.1200,20.2,11111222 
ADCP,ioos:station:wmo:42365:1,2012-03-13T15:30:00Z,28.2000,-89.1200,20.7,11111222 
ADCP,ioos:station:wmo:42365:1,2012-03-13T16:30:00Z,28.2000,-89.1200,20.7,11111222 
ADCP,ioos:station:wmo:42365:1,2012-03-13T18:30:00Z,28.2000,-89.1200,20.4,11111222 
ADCP,ioos:station:wmo:42365:1,2012-03-13T19:30:00Z,28.2000,-89.1200,20.6,11111222 
ADCP,ioos:station:wmo:42365:1,2012-03-13T20:30:00Z,28.2000,-89.1200,20.4,11111222 
ADCP,ioos:station:wmo:42365:1,2012-03-13T21:30:00Z,28.2000,-89.1200,20.4,11111222 
ADCP,ioos:station:wmo:42365:1,2012-03-13T22:30:00Z,28.2000,-89.1200,19.9,11111222 
ADCP,ioos:station:wmo:42365:1,2012-03-13T23:30:00Z,28.2000,-89.1200,19.9,11111222 
ADCP,ioos:station:wmo:42365:1,2012-03-14T00:30:00Z,28.2000,-89.1200,19.8,11111222 
ADCP,ioos:station:wmo:42365:1,2012-03-14T01:30:00Z,28.2000,-89.1200,19.9,11111222 
ADCP,ioos:station:wmo:42365:1,2012-03-14T02:30:00Z,28.2000,-89.1200,19.9,11111222 
ADCP,ioos:station:wmo:42365:1,2012-03-14T03:30:00Z,28.2000,-89.1200,20.1,11111222 
ADCP,ioos:station:wmo:42365:1,2012-03-14T04:30:00Z,28.2000,-89.1200,20.2,11111222 
ADCP,ioos:station:wmo:42365:1,2012-03-14T05:30:00Z,28.2000,-89.1200,20.2,11111222 
ADCP,ioos:station:wmo:42365:1,2012-03-14T06:30:00Z,28.2000,-89.1200,20.2,11111222 
ADCP,ioos:station:wmo:42365:1,2012-03-14T07:30:00Z,28.2000,-89.1200,20.1,11111222 
ADCP,ioos:station:wmo:42365:1,2012-03-14T08:30:00Z,28.2000,-89.1200,19.7,11111222 
ADCP,ioos:station:wmo:42365:1,2012-03-14T09:30:00Z,28.2000,-89.1200,19.7,11111222 
ADCP,ioos:station:wmo:42365:1,2012-03-14T10:30:00Z,28.2000,-89.1200,19.4,11111222 
ADCP,ioos:station:wmo:42365:1,2012-03-14T11:30:00Z,28.2000,-89.1200,18.9,11111222 
ADCP,ioos:station:wmo:42365:1,2012-03-14T12:30:00Z,28.2000,-89.1200,18.8,11111222 
ADCP,ioos:station:wmo:42365:1,2012-03-14T13:30:00Z,28.2000,-89.1200,18.4,11111222 
ADCP,ioos:station:wmo:42365:1,2012-03-14T14:30:00Z,28.2000,-89.1200,18.2,11111222 
ADCP,ioos:station:wmo:42365:1,2012-03-14T15:30:00Z,28.2000,-89.1200,18.2,11111222 
ADCP,ioos:station:wmo:42365:1,2012-03-14T16:30:00Z,28.2000,-89.1200,18.6,11111222 
ADCP,ioos:station:wmo:42365:1,2012-03-14T17:30:00Z,28.2000,-89.1200,18.7,11111222 
ADCP,ioos:station:wmo:42365:1,2012-03-14T18:30:00Z,28.2000,-89.1200,18.8,11111222 